Home > Time Zones > World Clock > Weather > Germany > Ulm > Past weeks

Flag for Germany Weather past 2 weeks in Ulm, Baden-Württemberg, Germany

Now
41 °F

Broken clouds.


Feels Like: 32 °F
Forecast: 34 / 42 °F
Wind: 17 mph from West

Location: Laupheim Airport

Current Time: Dec 20, 2014 at 11:56:29 AM

Latest Report: Dec 20, 2014 at 11:20 AM


Visibility: N/A

Pressure: 30.30 "Hg

Humidity: 70%

Dew point: 32 °F

Location of UlmLocation

Historic Weather in Ulm — Graph

°F

Ulm temperature yesterday

Maximum temperature yesterday: 52 °F (at 12:20 AM)
Minimum temperature yesterday: 46 °F (at 8:20 AM)
Average temperature yesterday: 49 °F

Past Weeks' High & Low Weather Summary

 TemperatureHumidityPressure
High52 °F (Dec 18, 11:20 PM)100% (Dec 5, 10:20 AM)30.39 "Hg (Dec 5, 10:20 AM)
Low30 °F (Dec 9, 6:20 AM)57% (Dec 12, 1:20 PM)29.77 "Hg (Dec 12, 8:20 PM)
Average40 °F87%30.06 "Hg
* Reported Dec 5 10:20 AM — Dec 20 10:20 AM, Ulm, Weather by CustomWeather, © 2014

Note: Actual official high and low records may vary slightly from our data, if they occured in-between our weather recording intervals... More about our weather records

Advertising

Ulm weather history for previous 24 hours

 ConditionsComfort  
Time TempWeatherWind HumidityBarometerVisibility
10:20 AM
Dec 20
39 °FScattered clouds.8 mph87%30.30 "HgN/A
9:20 AM37 °FPassing clouds.8 mph93%30.27 "HgN/A
8:20 AM39 °FScattered clouds.6 mph93%30.27 "HgN/A
7:20 AM39 °FPassing clouds.7 mph93%30.27 "HgN/A
6:20 AM39 °FPassing clouds.7 mph93%30.24 "HgN/A
5:20 AM39 °FPassing clouds.6 mph93%30.24 "HgN/A
4:20 AM41 °FPassing clouds.7 mph81%30.24 "HgN/A
3:20 AM43 °FPassing clouds.13 mph76%30.21 "HgN/A
2:20 AM45 °FPassing clouds.7 mph81%30.21 "HgN/A
1:20 AM45 °FPassing clouds.8 mph81%30.21 "HgN/A
12:20 AM46 °FPartly cloudy.12 mph87%30.18 "HgN/A
11:20 PM
Dec 19
46 °FLight rain. Partly cloudy.14 mph93%30.15 "HgN/A
10:20 PM46 °FRain. Partly cloudy.16 mph93%30.12 "HgN/A
9:20 PM48 °FLight rain. Partly cloudy.17 mph87%30.09 "HgN/A
8:20 PM48 °FPartly cloudy.14 mph87%30.09 "HgN/A
7:20 PM48 °FRain. Partly cloudy.16 mph82%30.07 "HgN/A
6:20 PM50 °FLight rain. Partly cloudy.21 mph76%30.07 "HgN/A
5:20 PM50 °FPartly cloudy.23 mph71%30.07 "HgN/A
4:20 PM50 °FPartly sunny.21 mph76%30.07 "HgN/A
3:20 PM50 °FPartly sunny.18 mph76%30.07 "HgN/A
2:20 PM52 °FPartly sunny.18 mph72%30.07 "HgN/A
1:20 PM50 °FPartly sunny.17 mph76%30.07 "HgN/A
12:20 PM50 °FPartly sunny.17 mph76%30.09 "HgN/A
12:00 PM50 °FPartly sunny.15 mph76%30.09 "HgN/A
11:20 AM50 °FBroken clouds.16 mph76%30.12 "HgN/A
Weather by CustomWeather, © 2014

See weather overviewHow to use our weather pages